Regional Weather Roundup
Issued by NWS Newport/Morehead, NC

Current Version | Previous Version | Graphics & Text | Print | Product List | Glossary On
Versions: 1 2 3 4 5 6 7 8 9 10 11 12 13 14 15 16 17 18 19 20 21 22 23 24 25 26 27 28 29 30 31 32 33 34 35 36 37 38 39 40 41 42 43 44 45 46 47 48 49 50
000 ASUS42 KMHX 211610 RWRMHX WEATHER ROUNDUP FOR EASTERN NORTH CAROLINA NATIONAL WEATHER SERVICE NEWPORT/MOREHEAD CITY NC 1200 PM EDT TUE OCT 21 2014 NOTE: "FAIR" INDICATES FEW OR NO CLOUDS BELOW 12,000 FEET WITH NO SIGNIFICANT WEATHER AND/OR OBSTRUCTIONS TO VISIBILITY NCZ015>017-031-032-045>047-102-103-211700- NORTH COAST CITY SKY/WX TMP DP RH WIND PRES REMARKS EDENTON SUNNY 70 56 60 SW6 29.89F ELIZABETH CITY N/A N/A N/A N/A SW10 29.88F KITTY HAWK SUNNY 70 57 64 NW6 29.88F MANTEO SUNNY 70 55 59 NE3 29.89F $$ NCZ045>047-081-094-103-104-211700- CENTRAL COAST CITY SKY/WX TMP DP RH WIND PRES REMARKS FRISCO SUNNY 70 62 76 W6 29.91F SWANQUARTER NOT AVBL $$ NCZ095-097-098-100-101-211700- SOUTHERN COAST CITY SKY/WX TMP DP RH WIND PRES REMARKS BEAUFORT SUNNY 74 55 51 NW7 29.90F CEDAR ISLAND NOT AVBL JACKSONVILLE SUNNY 74 53 48 W7 29.90F PINEY ISLAND SUNNY 74 56 53 W7 29.90F WILMINGTON SUNNY 74 53 48 W7 29.92F $$ NCZ011>013-027>030-043-044-078>080-089-090>093-098-211700- COASTAL PLAIN CITY SKY/WX TMP DP RH WIND PRES REMARKS AHOSKIE SUNNY 68 51 54 CALM 29.90F CLINTON SUNNY 72 56 58 W8 29.92F ELIZABETHTOWN SUNNY 72 53 51 W10 29.93S GOLDSBORO SUNNY 71 60 67 NW1 29.89F GREENVILLE SUNNY 72 54 53 W7 29.92F HAVELOCK MOSUNNY 75 53 46 W10 29.91F KENANSVILLE SUNNY 73 53 49 W7 29.92F KINSTON SUNNY 73 54 49 W5 29.91F NEW BERN SUNNY 75 52 44 W7 29.91F RICHLANDS SUNNY 73 52 46 W7 29.91F ROCKY MOUNT SUNNY 70 52 52 VRB5 29.90F WASHINGTON SUNNY 71 53 52 W7 29.90F WHITEVILLE SUNNY 73 54 51 SW7 29.92F $$ AMZ130-135-150-152-154-156-158-170-250-252-270-ANZ085-086-088-633-658-670-211700- MARINE OBSERVATIONS STATION/POSITION TIME TEMP WIND PRES WAVE SWELL AIR SEA DIR/SP/G HT/PER HT/PER (UTC) (F) (DEG/KT/KT) (MB) (FT/S) (FT/S) CHESAPEAKE LIGHT 1500 67 250/ 9/ 10 1012.3 64 E VA BEACH 1600 68 69 270/ 10/ 12 1011.5 3/ 5 2/ 5 DUCK 1600 67 69 220/ 6/ 7 1011.0 2 E DUCK 1600 N/A 2/11 10 NE DUCK 1600 71 N/A 2/10 2/11 OREGON INLET 1600 68 66 230/ 5/ 6 1012.1 13E OREGON INLT 1600 74 N/A 2/10 2/11 HATTERAS CG 1600 69 71 270/ 6/ 8 1013.2 DIAMOND BUOY 1600 70 280/ 12/ 16 1013.0 3/11 2/11 17 S OCRACOKE 1500 VRB 8/ 10 1013.2 CAPE LOOKOUT 1600 72 290/ 5/ 7 1012.9 BEAUFORT LAB 1600 73 70 240/ 3/ 8 1012.1 30 SE NEW RIVER 1600 71 76 280/ 6/ 8 1012.9 2/ 4 2/ 4 5 SE WRIGHTSVLE 1600 69 73 290/ 4/ 4 N/A 225 S CAPE HAT 1504 73 80 210/ 6/ 8 1015.2 3/ 8 3/ 8 41 SE CHARLESTON 1600 73 79 310/ 10/ 12 1013.9 2/ 9 2/ 9 $$

USA.gov is the U.S. government's official web portal to all federal, state and local government web resources and services.